TimePDT,TemperatureF,Dew PointF,Humidity,Sea Level PressureIn,VisibilityMPH,Wind Direction,Wind SpeedMPH,Gust SpeedMPH,PrecipitationIn,Events,Conditions,WindDirDegrees,DateUTC
12:55 AM,61.0,57.0,87,29.98,9.0,Calm,Calm,-,N/A,,Clear,0,2012-10-06 07:55:00
1:55 AM,59.0,55.9,90,29.98,9.0,Calm,Calm,-,N/A,,Clear,0,2012-10-06 08:55:00
2:55 AM,59.0,54.0,83,29.97,10.0,Calm,Calm,-,N/A,,Clear,0,2012-10-06 09:55:00
3:55 AM,57.9,54.0,87,29.96,10.0,ENE,3.5,-,N/A,,Clear,60,2012-10-06 10:55:00
4:55 AM,57.9,53.1,84,29.96,10.0,ENE,3.5,-,N/A,,Clear,70,2012-10-06 11:55:00
5:55 AM,57.9,52.0,81,29.97,10.0,Calm,Calm,-,N/A,,Clear,0,2012-10-06 12:55:00
7:55 AM,59.0,52.0,78,29.98,10.0,Calm,Calm,-,N/A,,Clear,0,2012-10-06 14:55:00
8:55 AM,64.0,53.1,67,29.99,10.0,Calm,Calm,-,N/A,,Clear,0,2012-10-06 15:55:00
9:55 AM,68.0,57.9,70,29.99,9.0,Calm,Calm,-,N/A,,Clear,0,2012-10-06 16:55:00
10:55 AM,70.0,59.0,68,29.98,10.0,Variable,3.5,-,N/A,,Clear,0,2012-10-06 17:55:00
11:55 AM,72.0,61.0,68,29.96,10.0,SSW,6.9,-,N/A,,Clear,200,2012-10-06 18:55:00
12:55 PM,73.0,61.0,66,29.94,10.0,SSW,6.9,-,N/A,,Clear,200,2012-10-06 19:55:00
1:55 PM,75.0,61.0,62,29.93,10.0,SSW,8.1,-,N/A,,Clear,210,2012-10-06 20:55:00
2:55 PM,73.9,60.1,62,29.91,10.0,SSW,9.2,-,N/A,,Clear,210,2012-10-06 21:55:00
4:55 PM,71.1,60.1,68,29.89,10.0,WSW,5.8,-,N/A,,Clear,240,2012-10-06 23:55:00
5:55 PM,69.1,60.1,73,29.88,10.0,WSW,6.9,-,N/A,,Clear,240,2012-10-07 00:55:00
6:55 PM,66.9,60.1,79,29.90,10.0,SSW,3.5,-,N/A,,Clear,210,2012-10-07 01:55:00
7:55 PM,66.0,60.1,81,29.91,10.0,Calm,Calm,-,N/A,,Clear,0,2012-10-07 02:55:00
8:55 PM,64.9,59.0,81,29.91,10.0,ESE,3.5,-,N/A,,Clear,120,2012-10-07 03:55:00
9:55 PM,64.9,57.9,78,29.91,10.0,ESE,3.5,-,N/A,,Clear,110,2012-10-07 04:55:00
10:55 PM,64.9,57.9,78,29.92,10.0,Calm,Calm,-,N/A,,Clear,0,2012-10-07 05:55:00
11:55 PM,64.0,59.0,84,29.91,10.0,ESE,4.6,-,N/A,,Clear,120,2012-10-07 06:55:00